Location: Fort Worth, Tx
(32.7431°N, 97.3695°W)
Time: 19:07:29
(UTC-04:00)

Transit 4A - Pass Details

Date: 06 March 2024
Orbit: 871 x 972 km, 66.8° (Epoch: 22 April)

Event Time Altitude Azimuth Distance (km) Brightness Sun altitude
Rises 09:14:50 0° 340° (NNW) 3,472 10.5 16.5°
Reaches altitude 10° 09:17:26 10° 347° (NNW) 2,525 9.9 17.1°
Maximum altitude 09:23:02 47° 60° (ENE) 1,142 9.1 18.2°
Drops below altitude 10° 09:28:36 10° 134° (SE) 2,516 11.6 19.3°
Sets 09:31:10 0° 140° (SE) 3,459 11.9 19.8°
